FW6530 Weather Reports


Display with metric or nautical units.
time (UTC)temp
F
wind
direction
speed
MPH
gust
MPH
rain 1hr
in
rain 24hr
in
rain mn
in
humidity
%
barometer
mb
20260503021024 56 45 2.0 6.0 0.00 0.00 0.00 31 1023.8
20260503020524 57 55 3.0 6.0 0.00 0.00 0.00 31 1023.6
20260503020041 57 61 1.0 5.0 0.00 0.00 0.00 30 1023.6
20260503015523 58 66 2.0 7.0 0.00 0.00 0.00 30 1023.6
20260503015025 59 57 3.0 7.0 0.00 0.00 0.00 29 1023.5
20260503014536 59 58 2.0 6.0 0.00 0.00 0.00 28 1023.5
20260503014024 60 0 2.0 6.0 0.00 0.00 0.00 27 1023.5
20260503013525 60 63 1.0 8.0 0.00 0.00 0.00 27 1023.4
20260503013036 60 58 1.0 8.0 0.00 0.00 0.00 27 1023.4
20260503012522 61 55 2.0 7.0 0.00 0.00 0.00 27 1023.3
20260503012024 61 348 2.0 7.0 0.00 0.00 0.00 26 1023.3
20260503011548 61 41 2.0 10.0 0.00 0.00 0.00 25 1023.3
20260503011025 62 97 4.0 11.0 0.00 0.00 0.00 25 1023.2
20260503010525 62 101 5.0 11.0 0.00 0.00 0.00 25 1023.2
20260503010043 62 83 3.0 13.0 0.00 0.00 0.00 25 1023.2
20260503005524 62 53 5.0 14.0 0.00 0.00 0.00 25 1023.2
20260503005025 63 85 7.0 14.0 0.00 0.00 0.00 24 1023.2
20260503004538 63 64 6.0 14.0 0.00 0.00 0.00 24 1023.1
20260503004027 64 128 4.0 12.0 0.00 0.00 0.00 23 1023.2
20260503003524 64 61 5.0 12.0 0.00 0.00 0.00 23 1023.1
20260503003036 65 72 3.0 11.0 0.00 0.00 0.00 22 1023.1
20260503002523 64 0 1.0 11.0 0.00 0.00 0.00 22 1023.0
20260503002024 64 82 4.0 11.0 0.00 0.00 0.00 22 1023.1
20260503001543 64 80 2.0 10.0 0.00 0.00 0.00 22 1023.1
20260503001027 64 142 4.0 10.0 0.00 0.00 0.00 22 1023.1
20260503000528 64 82 4.0 10.0 0.00 0.00 0.00 23 1023.1
20260503000057 64 0 4.0 10.0 0.00 0.00 0.00 22 1023.2
20260502235523 64 80 4.0 12.0 0.00 0.03 0.00 23 1023.1
20260502235024 63 108 5.0 12.0 0.00 0.03 0.00 22 1023.1
20260502234543 63 121 7.0 12.0 0.00 0.03 0.00 23 1023.1
20260502234025 64 124 4.0 12.0 0.00 0.03 0.00 21 1023.1
20260502233524 65 200 1.0 10.0 0.00 0.03 0.00 22 1023.1
20260502233039 65 209 3.0 13.0 0.00 0.03 0.00 21 1023.1
20260502232524 65 113 2.0 13.0 0.00 0.03 0.00 22 1023.0
20260502232024 65 96 4.0 11.0 0.00 0.03 0.00 21 1023.0
20260502231540 65 184 4.0 11.0 0.00 0.03 0.00 21 1023.0
20260502231024 66 80 5.0 9.0 0.00 0.03 0.00 21 1023.0
20260502230524 66 108 1.0 8.0 0.00 0.03 0.00 22 1023.0
20260502230036 65 123 0.0 9.0 0.00 0.03 0.00 23 1023.0
20260502225527 64 178 4.0 12.0 0.00 0.03 0.00 22 1023.1
20260502225027 64 73 1.0 14.0 0.00 0.03 0.00 22 1023.0
20260502224535 64 169 4.0 14.0 0.00 0.03 0.00 21 1023.1
20260502224028 64 180 8.0 14.0 0.00 0.03 0.00 21 1023.2
20260502223525 65 218 6.0 14.0 0.00 0.03 0.00 22 1023.1
20260502223042 64 102 4.0 13.0 0.00 0.03 0.00 22 1023.2
20260502222525 65 121 8.0 13.0 0.00 0.03 0.00 22 1023.1
20260502222025 65 182 3.0 12.0 0.00 0.03 0.00 23 1023.3
20260502221541 64 172 3.0 13.0 0.00 0.03 0.00 24 1023.4
20260502221024 64 182 6.0 13.0 0.00 0.03 0.00 23 1023.5
20260502220524 64 169 3.0 11.0 0.00 0.03 0.00 24 1023.6
20260502220050 64 130 5.0 15.0 0.00 0.03 0.00 23 1023.7
20260502215529 63 162 2.0 15.0 0.00 0.03 0.00 24 1023.8
20260502215028 63 158 7.0 14.0 0.00 0.03 0.00 24 1023.9
20260502214539 63 116 4.0 13.0 0.00 0.03 0.00 25 1023.9
20260502214025 62 83 3.0 12.0 0.00 0.03 0.00 25 1024.2
20260502213525 63 108 5.0 14.0 0.00 0.03 0.00 25 1024.0
20260502213043 64 134 4.0 15.0 0.00 0.03 0.00 24 1024.1
20260502212525 65 134 7.0 15.0 0.00 0.03 0.00 24 1024.2
20260502212024 65 127 5.0 15.0 0.00 0.03 0.00 26 1024.0
20260502211538 65 192 3.0 10.0 0.00 0.03 0.00 26 1024.3
20260502211024 64 193 5.0 13.0 0.00 0.03 0.00 27 1024.4
20260502210523 63 183 2.0 13.0 0.00 0.03 0.00 28 1024.4
20260502210034 63 130 6.0 19.0 0.00 0.03 0.00 25 1024.5
20260502205524 63 123 7.0 20.0 0.00 0.03 0.00 27 1024.5
20260502205026 63 157 6.0 20.0 0.00 0.03 0.00 28 1024.6
20260502204541 62 167 7.0 15.0 0.00 0.03 0.00 26 1024.6
20260502204024 63 167 8.0 15.0 0.00 0.03 0.00 27 1024.7
20260502203525 62 138 6.0 15.0 0.00 0.03 0.00 27 1024.8
20260502203039 62 178 5.0 16.0 0.00 0.03 0.00 27 1024.8
20260502202524 62 140 6.0 16.0 0.00 0.03 0.00 28 1024.9
20260502202022 62 119 8.0 16.0 0.00 0.03 0.00 31 1024.9
20260502201544 60 160 6.0 12.0 0.00 0.03 0.00 33 1024.9
20260502201024 60 121 6.0 12.0 0.00 0.03 0.00 32 1025.0
20260502200527 60 169 5.0 12.0 0.00 0.03 0.00 31 1025.0
20260502200041 60 254 2.0 10.0 0.00 0.03 0.00 32 1025.1
20260502195523 60 188 5.0 13.0 0.00 0.03 0.00 32 1025.3
20260502195024 60 189 5.0 13.0 0.00 0.03 0.00 32 1025.3
20260502194539 61 172 5.0 13.0 0.00 0.03 0.00 31 1025.5
20260502194024 62 213 3.0 8.0 0.00 0.03 0.00 34 1025.5
20260502193525 62 178 3.0 8.0 0.00 0.03 0.00 36 1025.5
20260502193044 62 175 2.0 7.0 0.00 0.03 0.00 34 1025.6
20260502192524 61 115 3.0 6.0 0.00 0.03 0.00 34 1025.6
20260502192024 61 178 2.0 7.0 0.00 0.03 0.00 36 1025.8
20260502191543 61 232 1.0 7.0 0.00 0.03 0.00 33 1025.8
20260502191023 61 282 3.0 9.0 0.00 0.03 0.00 35 1025.8
20260502190525 60 283 3.0 9.0 0.00 0.03 0.00 37 1026.0
20260502190047 59 236 2.0 11.0 0.00 0.03 0.00 38 1026.0
20260502185523 59 181 5.0 11.0 0.00 0.03 0.00 36 1026.1
20260502185025 58 196 1.0 11.0 0.00 0.03 0.00 40 1026.2
20260502184539 58 165 5.0 11.0 0.00 0.03 0.00 37 1026.3
20260502184023 58 175 3.0 9.0 0.00 0.03 0.00 40 1026.3
20260502183524 58 199 2.0 9.0 0.00 0.03 0.00 40 1026.3
20260502183040 58 167 4.0 9.0 0.00 0.03 0.00 39 1026.4
20260502182526 57 188 4.0 12.0 0.00 0.03 0.00 41 1026.4
20260502182028 57 186 3.0 12.0 0.00 0.03 0.00 41 1026.4
20260502181541 57 190 6.0 11.0 0.00 0.03 0.00 41 1026.5
20260502181024 57 244 4.0 14.0 0.00 0.03 0.00 45 1026.5
20260502180523 56 203 4.0 16.0 0.00 0.03 0.00 43 1026.5
20260502164024 52 176 7.0 15.0 0.00 0.03 0.00 56 1026.6
20260502163525 52 180 9.0 14.0 0.00 0.03 0.00 54 1026.5
20260502163046 52 165 6.0 14.0 0.00 0.03 0.00 57 1026.5
20260502162524 51 146 4.0 10.0 0.00 0.03 0.00 58 1026.6
20260502162025 51 209 5.0 12.0 0.00 0.03 0.00 56 1026.6
20260502161535 50 196 5.0 12.0 0.00 0.03 0.00 61 1026.6
20260502161024 50 166 6.0 11.0 0.00 0.03 0.00 58 1026.6
20260502160525 50 205 5.0 11.0 0.00 0.03 0.00 59 1026.5
20260502152022 49 240 4.0 9.0 0.00 0.03 0.00 61 1026.6
20260502151559 49 194 3.0 8.0 0.00 0.03 0.00 62 1026.7
20260502151024 48 223 3.0 8.0 0.00 0.03 0.00 60 1026.7
20260502150522 48 208 3.0 6.0 0.00 0.03 0.00 61 1026.7
20260502130524 36 290 1.0 7.0 0.00 0.03 0.00 81 1026.1
20260502123522 33 287 0.0 3.0 0.00 0.03 0.00 85 1025.8
20260502123040 34 0 0.0 3.0 0.00 0.03 0.00 86 1025.8
20260502122521 34 0 0.0 4.0 0.00 0.03 0.00 86 1025.7
20260502122022 34 288 1.0 4.0 0.00 0.03 0.00 86 1025.6
20260502121538 34 284 1.0 4.0 0.00 0.03 0.00 87 1025.7
20260502121024 34 273 1.0 4.0 0.00 0.03 0.00 87 1025.7
20260502120522 34 271 1.0 6.0 0.00 0.03 0.00 88 1025.7
20260502115524 34 279 1.0 3.0 0.00 0.04 0.00 90 1025.6
20260502115024 35 269 0.0 3.0 0.00 0.04 0.00 90 1025.7
20260502114539 35 265 0.0 3.0 0.00 0.04 0.00 90 1025.8
20260502114024 35 0 0.0 3.0 0.00 0.04 0.00 90 1025.9
20260502113523 35 0 0.0 2.0 0.00 0.04 0.00 89 1025.9
20260502113049 35 0 0.0 2.0 0.00 0.04 0.00 89 1026.0
20260502112525 35 266 0.0 2.0 0.00 0.04 0.00 89 1026.1
20260502112024 35 0 0.0 2.0 0.00 0.04 0.00 89 1026.1
20260502111535 36 0 0.0 3.0 0.00 0.04 0.00 89 1026.1
20260502111023 36 266 0.0 3.0 0.00 0.04 0.00 90 1026.1
20260502110524 36 266 0.0 3.0 0.00 0.04 0.00 90 1026.0
20260502110041 36 0 0.0 4.0 0.00 0.04 0.00 91 1026.1
20260502105528 36 0 1.0 4.0 0.00 0.05 0.00 91 1026.0
20260502105024 35 0 1.0 4.0 0.00 0.05 0.00 91 1026.0
20260502104543 35 0 0.0 3.0 0.00 0.05 0.00 90 1025.8
20260502104025 35 0 0.0 2.0 0.00 0.05 0.00 90 1025.9
20260502103524 35 49 0.0 2.0 0.00 0.05 0.00 90 1025.9
20260502103039 35 0 0.0 3.0 0.00 0.05 0.00 89 1025.9
20260502102524 35 0 0.0 3.0 0.00 0.05 0.00 89 1025.7
20260502102025 35 0 0.0 1.0 0.00 0.05 0.00 88 1025.7
20260502101548 36 0 0.0 2.0 0.00 0.05 0.00 88 1025.8
20260502101023 36 0 0.0 2.0 0.00 0.05 0.00 88 1025.7
20260502100522 36 0 0.0 2.0 0.00 0.05 0.00 88 1025.6
20260502091021 38 0 0.0 0.0 0.00 0.06 0.00 86 1025.4
20260502090524 38 0 0.0 2.0 0.00 0.06 0.00 86 1025.4
20260502090109 38 0 0.0 2.0 0.00 0.06 0.00 86 1025.4
20260502071027 38 22 2.0 7.0 0.00 0.15 0.00 84 1026.1
20260502070526 38 44 3.0 11.0 0.00 0.15 0.00 85 1026.1
20260502070057 38 50 3.0 11.0 0.00 0.15 0.00 85 1026.0
20260502065526 38 32 4.0 8.0 0.00 0.16 0.00 85 1026.0
20260502065027 38 46 2.0 5.0 0.00 0.16 0.00 85 1026.0
20260502064555 38 44 2.0 6.0 0.00 0.16 0.00 85 1026.0
20260502064028 38 19 2.0 6.0 0.00 0.16 0.00 85 1025.9
20260502063525 38 40 2.0 5.0 0.00 0.16 0.00 85 1026.0
20260502063048 38 18 2.0 5.0 0.00 0.16 0.00 86 1026.0
20260502062525 38 347 2.0 6.0 0.00 0.16 0.00 86 1025.8
20260502062026 38 347 2.0 7.0 0.00 0.16 0.00 86 1025.9
20260502061543 38 37 2.0 7.0 0.00 0.16 0.00 86 1025.9
20260502061027 38 65 3.0 9.0 0.00 0.16 0.00 86 1025.7
20260502060524 38 40 4.0 9.0 0.00 0.16 0.00 86 1025.6
20260502060041 38 49 4.0 9.0 0.00 0.16 0.00 86 1025.7
20260502055525 38 46 2.0 8.0 0.00 0.16 0.16 87 1025.6
20260502055024 38 55 2.0 8.0 0.00 0.16 0.16 87 1025.6
20260502054541 38 63 3.0 8.0 0.00 0.16 0.16 87 1025.6
20260502054025 38 59 1.0 5.0 0.00 0.16 0.16 87 1025.6
20260502053523 38 59 1.0 4.0 0.00 0.16 0.16 87 1025.6
20260502053038 38 0 1.0 4.0 0.00 0.16 0.16 87 1025.4
20260502052522 38 40 1.0 4.0 0.00 0.16 0.16 87 1025.3
20260502052023 38 38 1.0 3.0 0.00 0.16 0.16 87 1025.3
20260502051540 38 0 0.0 4.0 0.00 0.16 0.16 87 1025.3
20260502051027 37 38 1.0 4.0 0.00 0.16 0.16 87 1025.5
20260502050526 37 37 2.0 5.0 0.00 0.16 0.16 87 1025.3
20260502050040 37 36 2.0 5.0 0.00 0.16 0.16 88 1025.2
20260502045524 37 36 1.0 4.0 0.00 0.16 0.16 88 1024.9
20260502045024 37 0 2.0 4.0 0.00 0.16 0.16 88 1024.9
20260502044535 37 37 2.0 4.0 0.00 0.16 0.16 88 1024.9
20260502044023 37 45 1.0 3.0 0.00 0.16 0.16 88 1024.9
20260502043523 37 0 0.0 1.0 0.00 0.16 0.16 87 1024.8
20260502043034 37 0 0.0 1.0 0.00 0.16 0.16 86 1024.7
20260502042523 37 0 0.0 2.0 0.00 0.16 0.16 87 1024.5
20260502042028 37 0 0.0 2.0 0.00 0.16 0.16 86 1024.5
20260502041553 37 0 0.0 3.0 0.00 0.16 0.16 86 1024.6
20260502041022 37 0 1.0 6.0 0.00 0.16 0.16 86 1024.8
20260502040523 38 51 1.0 6.0 0.00 0.16 0.16 86 1024.7
20260502040042 38 5 0.0 5.0 0.00 0.16 0.16 85 1024.7
20260502035523 38 360 1.0 6.0 0.00 0.16 0.16 85 1024.8
20260502035023 38 0 3.0 8.0 0.00 0.16 0.16 85 1024.7
20260502034536 38 351 3.0 8.0 0.00 0.16 0.16 85 1024.7
20260502034023 38 352 4.0 9.0 0.00 0.16 0.16 85 1024.6
20260502033523 38 51 4.0 9.0 0.00 0.16 0.16 85 1024.5
20260502033036 38 26 4.0 9.0 0.00 0.16 0.16 85 1024.3
20260502032523 38 39 4.0 8.0 0.00 0.16 0.16 85 1024.3
20260502032022 38 11 3.0 8.0 0.00 0.16 0.16 85 1024.2
20260502031540 38 15 3.0 9.0 0.00 0.16 0.16 85 1024.2
20260502031024 38 351 4.0 9.0 0.00 0.16 0.16 85 1024.2
20260502030522 38 57 3.0 8.0 0.00 0.16 0.16 86 1024.1
20260502030042 38 17 3.0 9.0 0.00 0.16 0.16 86 1024.0
20260502025523 38 351 4.0 10.0 0.00 0.16 0.16 86 1023.9
20260502025023 38 36 4.0 10.0 0.00 0.16 0.16 86 1023.8
20260502024536 38 71 3.0 9.0 0.00 0.16 0.16 86 1023.8
20260502024021 38 24 4.0 9.0 0.00 0.16 0.16 85 1023.6
20260502023523 38 49 3.0 9.0 0.00 0.16 0.16 85 1023.5
20260502023051 39 47 4.0 9.0 0.00 0.16 0.16 85 1023.4
20260502022523 39 24 2.0 8.0 0.00 0.16 0.16 85 1023.4
20260502022023 39 30 3.0 10.0 0.00 0.16 0.16 84 1023.2
20260502021541 39 52 4.0 11.0 0.00 0.16 0.16 84 1023.2